Regional Weather Roundup
Issued by NWS

Home | Current Version | Previous Version | Text Only | Print | Product List | Glossary On
Versions: 1 2 3 4 5 6 7 8 9 10 11 12 13 14 15 16 17 18 19 20 21 22 23 24 25 26 27 28 29 30 31 32 33 34 35 36 37 38 39 40 41 42 43 44 45 46 47 48 49 50
000
ASUS45 KREV 280210
RWRNV
NEVADA REGIONAL WEATHER ROUNDUP
NATIONAL WEATHER SERVICE RENO NV
600 PM PST THU NOV 27 2014

NOTE: "FAIR" INDICATES FEW OR NO CLOUDS BELOW 12,000 FEET WITH NO
SIGNIFICANT WEATHER AND/OR OBSTRUCTIONS TO VISIBILITY.

NVZ001-003-004-280300-
WESTERN NEVADA

CITY           SKY/WX    TMP DP  RH WIND       PRES   REMARKS
RENO           PTCLDY    60  15  17 CALM      30.12F
CARSON CITY    FAIR      59  16  18 S5        30.16S
MINDEN         FAIR      52  16  24 E3        30.17
PYRAMID LAKE     N/A     68 N/A N/A SW18        N/A
FALLON         MOCLDY    52  21  29 SE5       30.10F
LOVELOCK       CLOUDY    42  26  53 CALM      30.11S
HAWTHORNE      CLEAR     52  21  30 CALM      30.15S
$$

NVZ002-CAZ072-073-280300-
NORTHERN AND CENTRAL SIERRA

CITY           SKY/WX    TMP DP  RH WIND       PRES   REMARKS
S. LAKE TAHOE  CLEAR     47  24  40 CALM      30.22F
TRUCKEE        CLEAR     50  18  27 S7        30.21F
SQUAW VLY 8000 NOT AVBL
BLUE CANYON    CLEAR     52  27  38 SE8       30.21F
MAMMOTH LAKES  FAIR      50  12  22 W8        30.31S
BRIDGEPORT     FAIR      44  16  32 CALM      30.25S
$$

NVZ030-031-036-280300-
NORTHERN NEVADA

CITY           SKY/WX    TMP DP  RH WIND       PRES   REMARKS
ELKO           CLOUDY    45  31  58 CALM      30.16F
WINNEMUCCA     CLOUDY    54  24  31 SW9       30.09F
WENDOVER       MOCLDY    43  30  61 CALM      30.15F
$$

NVZ035-037-280300-
CENTRAL NEVADA

CITY           SKY/WX    TMP DP  RH WIND       PRES   REMARKS
ELY            CLOUDY    40  15  36 S6        30.27S
EUREKA           N/A     39  26  59 S9        30.22F
$$

NVZ013-014-280300-
SOUTH CENTRAL NEVADA

CITY           SKY/WX    TMP DP  RH WIND       PRES   REMARKS
TONOPAH        CLOUDY    42  15  33 N5        30.25S
$$

NVZ017-020-022-280300-
SOUTHERN NEVADA

CITY           SKY/WX    TMP DP  RH WIND       PRES   REMARKS
LAS VEGAS      MOCLDY    59  22  24 S8        30.13S
N. LAS VEGAS   MOCLDY    55  24  30 N3        30.17R
NELLIS AFB     MOCLDY    53  19  26 NE5       30.17S
HENDERSON      MOCLDY    53  24  32 S6        30.19S
MERCURY        MOCLDY    56  15  20 E6        30.18S
$$


USA.gov is the U.S. government's official web portal to all federal, state and local government web resources and services.